This is the latest recevied weather packets stored in our database for station/object SP9TWP-3. If no packets are shown the sender has not sent any weather packets the latest 10 day(s).
| Time | Temp. | Humidity | Pressure | Rain* | Wind** | Luminosity | Snow |
|---|---|---|---|---|---|---|---|
| 1777360503 | 8.33° C | 41% | 1022.2 hPa | - | - | - | - |
| 1777359603 | 7.78° C | 43% | 1022.3 hPa | - | - | - | - |
| 1777358703 | 8.33° C | 41% | 1022.3 hPa | - | - | - | - |
| 1777357803 | 6.67° C | 47% | 1022.1 hPa | - | - | - | - |
| 1777356903 | 6.11° C | 48% | 1022.2 hPa | - | - | - | - |
| 1777356003 | 5.56° C | 49% | 1022.1 hPa | - | - | - | - |
| 1777355102 | 5.56° C | 50% | 1022.1 hPa | - | - | - | - |
| 1777354202 | 5° C | 50% | 1021.9 hPa | - | - | - | - |
| 1777353302 | 5° C | 51% | 1021.7 hPa | - | - | - | - |
| 1777352402 | 5° C | 51% | 1021.4 hPa | - | - | - | - |
| 1777351502 | 5° C | 52% | 1021.3 hPa | - | - | - | - |
| 1777350602 | 5° C | 53% | 1021.1 hPa | - | - | - | - |
| 1777349701 | 4.44° C | 53% | 1020.9 hPa | - | - | - | - |
| 1777348801 | 4.44° C | 55% | 1020.8 hPa | - | - | - | - |
| 1777347901 | 4.44° C | 56% | 1020.5 hPa | - | - | - | - |
| 1777347001 | 4.44° C | 56% | 1020.4 hPa | - | - | - | - |
| 1777346101 | 4.44° C | 56% | 1020.3 hPa | - | - | - | - |
| 1777345201 | 4.44° C | 58% | 1020.2 hPa | - | - | - | - |
| 1777344301 | 4.44° C | 61% | 1020.2 hPa | - | - | - | - |
| 1777343400 | 4.44° C | 63% | 1020.1 hPa | - | - | - | - |
| 1777342500 | 3.89° C | 65% | 1020.1 hPa | - | - | - | - |
| 1777341600 | 4.44° C | 70% | 1020 hPa | - | - | - | - |
| 1777340700 | 4.44° C | 66% | 1019.9 hPa | - | - | - | - |
| 1777339800 | 5° C | 65% | 1019.8 hPa | - | - | - | - |
| 1777338900 | 5° C | 62% | 1019.8 hPa | - | - | - | - |
* Rain since midnight (hover to see other rain measurements)
** Current wind speed in m/s (hover to see current wind gust speed)